Flag for Switzerland Weather past 2 weeks in Einsiedeln, Schwyz, Switzerland

Now
63 °F

Mild.


Feels Like: 63 °F
Forecast: 52 / 58 °F
Wind: 1 mph from West

Location: Altdorf

Current Time: Jul 29, 2014 at 11:11:46 PM

Latest Report: Jul 29, 2014 at 10:00 PM


Visibility: N/A

Pressure: 29.82 "Hg

Humidity: 85%

Dew point: 59 °F

Location of EinsiedelnLocation

Historic Weather in Einsiedeln — Graph

°F

Einsiedeln temperature yesterday

Maximum temperature yesterday: 74 °F (at 5:00 PM)
Minimum temperature yesterday: 56 °F (at 7:00 AM)
Average temperature yesterday: 64 °F

Past Weeks' High & Low Weather Summary

 TemperatureHumidityPressure
High85 °F (Jul 20, 2:00 AM)96% (Jul 22, 4:00 AM)30.20 "Hg (Jul 22, 4:00 AM)
Low56 °F (Jul 25, 6:00 AM)31% (Jul 19, 8:00 PM)29.73 "Hg (Jul 28, 6:00 PM)
Average67 °F78%29.96 "Hg
* Reported Jul 14 9:00 PM — Jul 29 9:00 PM, Einsiedeln, Weather by CustomWeather, © 2014

Note: Actual official high and low records may vary slightly from our data, if they occured in-between our weather recording intervals... More about our weather records

Advertising

Einsiedeln weather history for previous 24 hours

 ConditionsComfort  
Time TempWeatherWind HumidityBarometerVisibility
9:00 PM
Jul 29
64 °FMild.2 mph80%29.80 "HgN/A
8:00 PM65 °FMild.3 mph78%29.79 "HgN/A
7:00 PM66 °FMild.5 mph74%29.78 "HgN/A
6:00 PM66 °FMild.3 mph68%29.78 "HgN/A
5:00 PM66 °FOvercast.7 mph73%29.78 "Hg9 mi
4:00 PM65 °FMild.7 mph73%29.77 "HgN/A
3:00 PM66 °FMild.8 mph72%29.78 "HgN/A
2:00 PM68 °FOvercast.8 mph71%29.78 "Hg10 mi
1:00 PM65 °FMild.7 mph77%29.79 "HgN/A
12:00 PM62 °FCool.3 mph86%29.80 "HgN/A
11:00 AM61 °FLight rain. Overcast.5 mph87%29.80 "Hg7 mi
10:00 AM61 °FCool.3 mph87%29.82 "HgN/A
9:00 AM61 °FCool.3 mph93%29.81 "HgN/A
8:00 AM60 °FRain. Overcast.No wind94%29.80 "Hg9 mi
7:00 AM60 °FCool.2 mph94%29.82 "HgN/A
6:00 AM60 °FCool.1 mph92%29.81 "HgN/A
5:00 AM60 °FRain. Overcast.No wind92%29.82 "Hg6 mi
4:00 AM60 °FCool.5 mph93%29.82 "HgN/A
3:00 AM61 °FCool.3 mph94%29.83 "HgN/A
2:00 AM61 °FCool.1 mph94%29.84 "HgN/A
1:00 AM61 °FCool.1 mph93%29.86 "HgN/A
12:00 AM62 °FCool.2 mph93%29.87 "HgN/A
11:00 PM
Jul 28
62 °FRain. Overcast.3 mph92%29.88 "Hg6 mi
Weather by CustomWeather, © 2014

See weather overviewHow to use our weather pages